User: anonymous   Login
Location: Helsinki
(60.1699°N, 24.9384°E)
Time: 19:58:59
(UTC+03:00)
Language:

S-56A Canister/Altair - Orbit

View from above orbital plane
View from above orbital plane
View from above satellite
View from above satellite

Ground track
Ground track

The orbit data is extracted from the following two-line orbital elements,

1    82U 61004B   20294.70708366 -.00000096 +00000-0 -41542-4 0  9992
2    82 038.8593 094.5933 1175246 328.0832 025.3581 12.26057075823184
Epoch (UTC): 20 October 2020 16:58:12
Eccentricity: 0.1175246
inclination: 38.8593°
perigee height: 632 km
apogee height: 2500 km
right ascension of ascending node: 94.5933°
argument of perigee: 328.0832°
revolutions per day: 12.26057075
mean anomaly at epoch: 25.3581°
orbit number at epoch: 82318

The dashed part of the orbit path shows where the satellite is in the earth's shadow,  

DLR